P. 1
NISN_20531191_SMPN 1 SEPULU(2011-2012)

NISN_20531191_SMPN 1 SEPULU(2011-2012)

|Views: 177|Likes:
Dipublikasikan oleh mohlis_may
Utk Para Siswa yang butuh Nomor Induk Siswa Nasional Tahun Pelajaran 2011-2012 dari kelas 7 Hingga Kelas 9 tinggal di donload ya!
Utk Para Siswa yang butuh Nomor Induk Siswa Nasional Tahun Pelajaran 2011-2012 dari kelas 7 Hingga Kelas 9 tinggal di donload ya!

More info:

Published by: mohlis_may on Jun 19, 2012
Hak Cipta:Attribution Non-commercial

Availability:

Read on Scribd mobile: iPhone, iPad and Android.
download as XLS, PDF, TXT or read online from Scribd
See more
See less

08/03/2012

pdf

text

original

1

NO NISN NAMA KELAMIN (L/P) TEMPAT LAHIR TGL LAHIR (YYYY-MM-DD)
1 9978311034 FIRDAUZI NUZULA P BANGKALAN 1996-02-01
2 9968574038 IBRAHIM Y. L BANGKALAN 1996-05-03
3 9978319595 ANDRIAN ROMADHON L BANGKALAN 1997-01-01
4 9974066131 MOHAMMAD FAIZAL L BANGKALAN 1997-01-09
5 9974066223 ZAINUR ROHMAN L BANGKALAN 1997-01-13
6 9974066184 MOH. FATHUR ROHMAN L BANGKALAN 1997-01-23
7 9978299492 JATIM L BANGKALAN 1997-02-05
8 9974066134 TRIONO L BANGKALAN 1997-03-15
9 9974066185 ABDUL AZIZ L BANGKALAN 1997-04-01
10 9974066186 MOH. NEMMOH RISQI L BANGKALAN 1997-07-06
11 9978311065 ABDUL JALIL L BANGKALAN 1997-07-07
12 9974066212 SISKA TRI WAHYUNI P BANGKALAN 1997-07-27
13 9984089878 SIRADJUDDIN L BANGKALAN 1997-07-28
14 9974066213 AGUS HIDAYAT L BANGKALAN 1997-08-17
15 9984081585 MOH. HASANDI HASAN L BANGKALAN 1997-08-17
16 9978311125 ANSYORI L BANGKALAN 1997-09-17
17 9978590246 UUS NIRWATI P BANGKALAN 1997-10-19
18 9974066187 AINUL YAKIN L BANGKALAN 1997-10-19
19 9978310171 FATHORRAZI L BANGKALAN 1997-11-18
20 9978590250 PUTRIANA LISTA D. P BANGKALAN 1997-11-19
21 9974066215 LUTFIYANTO L BANGKALAN 1997-11-20
22 9984089829 MUJIB L BANGKALAN 1998-01-16
23 9984089830 FAISOL L BANGKALAN 1998-01-17
24 9988212883 M. KWAFID FAWAZAL L BANGKALAN 1998-01-25
25 9988433297 MUSAYENAH P BANGKALAN 1998-02-02
26 9984100038 AKBAR MAULANA L BANGKALAN 1998-02-10
27 9984089987 NUR CHOLISH L BANGKALAN 1998-02-17
28 9982383028 ACH. HUZAIMI L BANGKALAN 1998-02-26
29 9988154651 SHOLAHUDIN L BANGKALAN 1998-03-09
30 9982769057 AHMAD MUHYIDDIN L BANGKALAN 1998-03-24
31 9984089868 LAILATUL FITRIA P BANGKALAN 1998-03-25
32 9984100024 MUFARROHAH P BANGKALAN 1998-03-29
33 9984100039 MOH. FUADI L BANGKALAN 1998-04-03
34 9984089967 HOBIR FUSADIN L BANGKALAN 1998-04-06
35 9984100025 WARIDUL HOYR L BANGKALAN 1998-04-13
36 9984100026 NEMMOH LIA P BANGKALAN 1998-04-21
37 9982402960 SHUSHAN APRILIA SUNDJOTO P BANGKALAN 1998-04-28
38 9988154234 NUR JANNAH P BANGKALAN 1998-05-10
39 9984100027 ZAINUL ARIFIN L BANGKALAN 1998-05-17
40 9988154609 DANIAWAN L BANGKALAN 1998-05-17
41 9982769357 ABDUL HAMID L BANGKALAN 1998-05-24
42 9984089874 FAUZI L PALANGKARAYA 1998-05-28
43 9984100011 ADE SUSI RATNASARI P BANGKALAN 1998-06-07
44 9984100028 AHMAD MISBAHUS SUDUR L BANGKALAN 1998-06-08
45 9988213025 WULANDARI P BANGKALAN 1998-06-09
46 9988154251 MARHATUS P BANGKALAN 1998-07-01
47 9984100029 MUAFI L BANGKALAN 1998-07-04
48 9988154777 ANNISA BUDI CAHYATI P BANGKALAN 1998-07-04
49 9984100138 RINI SUHARTINI P BANGKALAN 1998-07-06
50 9984100030 SITI KARMILA P BANGKALAN 1998-07-10
51 9984100031 NIKMATUL AINI P BANGKALAN 1998-07-10
52 9984718092 SUFYAN L BANGKALAN 1998-07-12
53 9974066127 JEMAL L BANGKALAN 1998-07-13
54 9982769065 IZZATUN NIHIYAH P BANGKALAN 1998-07-15
55 9984089990 MOH. AMIN L BANGKALAN 1998-07-17
56 9982402924 M. GUSTI FUAD RIZAL L BANGKALAN 1998-08-08
57 9988433316 FATIMA P BANGKALAN 1998-08-12
58 9988154588 MOH. ZAINAL ARIFIN L BANGKALAN 1998-08-12
59 9988797184 ELATUR UCHRO P BANGKALAN 1998-08-16
60 9988797186 SILAWATI P BANGKALAN 1998-08-17
61 9995206720 NASIMAH P BANGKALAN 1998-08-20
100871548.xls.ms_office
2
ALAMAT TINGKAT NPSN
LABUHAN 7 20531191
SEPULU 7 20531191
PRANCAK 7 20531191
KELBUNG 7 20531191
TANAGURAH 7 20531191
PRANCAK 7 20531191
BANGSEREH 7 20531191
KELBUNG 7 20531191
PRANCAK 7 20531191
PRANCAK 7 20531191
LEMBUNG PASESER 7 20531191
SEPULU 7 20531191
KELGBUNG 7 20531191
SEPULU 7 20531191
SAPLASAH 7 20531191
MANERON 7 20531191
BANYONING DAJAH,GEGER 7 20531191
PRANCAK 7 20531191
GANGSEYAN 7 20531191
BANYONENG 7 20531191
SEPULU 7 20531191
GUNELAP 7 20531191
GUNELAP 7 20531191
SEPULU 7 20531191
GEGER 7 20531191
SEPULU 7 20531191
PRANCAK 7 20531191
BANGSEREH 7 20531191
MANERON 7 20531191
LEMBUNG PASESER 7 20531191
KALABETAN 7 20531191
SEPULU 7 20531191
SEPULU 7 20531191
LEMBUNG PASESER 7 20531191
SEPULU 7 20531191
SEPULU 7 20531191
SEPULU 7 20531191
KELBUNG 7 20531191
SEPULU 7 20531191
LEMBUNG PASESER 7 20531191
KELBUNG 7 20531191
KALABETAN 7 20531191
SEPULU 7 20531191
SEPULU 7 20531191
SEPULU 7 20531191
KELBUNG 7 20531191
SEPULU 7 20531191
MANERON 7 20531191
BANYUSANGKAH,TJ.BUMI 7 20531191
SEPULU 7 20531191
SEPULU 7 20531191
KELBUNG 7 20531191
KELBUNG 7 20531191
LEMBUNG PASESER 7 20531191
PRANCAK 7 20531191
MANERON 7 20531191
GEGER 7 20531191
LABUHAN 7 20531191
BANYUSANGKA 7 20531191
BANYUSANGKA 7 20531191
PRANCAK 7 20531191
100871548.xls.ms_office
3
62 9984089991 SITI FITRIATUL JANNAH P BANGKALAN 1998-08-24
63 9984100032 SYOPYAN ALI L CIAMIS 1998-08-25
64 9984100033 RUDI VASLA L BANGKALAN 1998-09-06
65 9984100034 BAHRIATUL JENNAH P BANGKALAN 1998-09-09
66 9984089808 MUAWWANAH P BANGKALAN 1998-09-10
67 9984089818 MAWADDATUR RAHMAH P BANGKALAN 1998-09-13
68 9984100015 FATHUR ROHIM L BANGKALAN 1998-09-14
69 9988433322 HALIMATUS SAKDIYAH P BANGKALAN 1998-09-24
70 9984100041 FAISAL ABDULLAH L BANGKALAN 1998-09-24
71 9984100016 TAUFIKUR ROCHMAN L BANGKALAN 1998-10-08
72 9984100035 ERNAWATI DEWI P BANGKALAN 1998-10-11
73 9984100046 MOH. NAJIB L BANGKALAN 1998-10-13
74 9984100017 ABDUL AZIZURROHMAN L BANGKALAN 1998-11-07
75 9984100018 FAMILA LAILATIL IZZATI P BANGKALAN 1998-11-08
76 9984089871 SALIMAH P BANGKALAN 1998-11-10
77 9984100036 ILHAM ALI FAHMI L BANGKALAN 1998-11-11
78 9984089903 ABD. MUIS L BANGKALAN 1998-11-19
79 9984100019 IFAN DWI CAHYA L BANGKALAN 1998-11-25
80 9986617686 M. Andika Hidayatulloh L JAKARTA 1998-12-04
81 9984100022 HIDAYATULLAH L BANGKALAN 1998-12-06
82 9984089992 ARISAH P BANGKALAN 1998-12-11
83 9988433326 KIPTIYAH P BANGKALAN 1998-12-12
84 9984089820 RIZAL EFENDI L BANGKALAN 1998-12-19
85 9984217049 Siti Sholehah P PALANGKARAYA 1998-12-23
86 9984100037 SUGIANTO L BANGKALAN 1998-12-29
87 9988152995 ZAINAL ABIDIN L BANGKALAN 1998-12-31
88 9995206780 SYAMSUL ARIFIN L BANGKALAN 1999-01-01
89 9998571866 ALDY DWI PRASTIYA L GRESIK 1999-01-01
90 9995206581 NUR AWALIYAH P BANGKALAN 1999-01-04
91 9995206583 MARWATUN HASANAH P BANGKALAN 1999-01-05
92 9995206742 AINUL YAQIN L BANGKALAN 1999-01-12
93 9995206761 NOVI RAHMAWATI P BANGKALAN 1999-01-16
94 9995206673 RAKHMAD IBROHIM L BANGKALAN 1999-01-17
95 9995206762 RIZKY WAHYU CHRISTIANTO L NGANJUK 1999-02-04
96 9992729524 Irma Nurcahyati P JOMBANG 1999-02-05
97 9995206782 SUKKRON L BANGKALAN 1999-02-09
98 9995206674 MAUIDHOTUL HASANAH P BANGKALAN 1999-02-11
99 9995206709 SAFINATUL MUFARROHAH P BANGKALAN 1999-02-13
100 9995206763 FAISOL L BANGKALAN 1999-03-04
101 9995206710 NABILA P BANGKALAN 1999-03-12
102 9995206602 MUAVIA P BANGKALAN 1999-03-13
103 9995206748 SAFINATUN NAJAH P BANGKALAN 1999-03-17
104 9995206749 MUFIDATUL MUKARROMAH P BANGKALAN 1999-03-21
105 9995206750 VICTOR RICHARDO L BANGKALAN 1999-03-25
106 9995206642 LU'LUATUL MABRUKA P BANGKALAN 1999-03-29
107 9995206776 HUSNUL HOTIMAH P BANGKALAN 1999-04-01
108 9995206584 TAUFIK HIDAYAT L BANGKALAN 1999-04-02
109 9995206752 LUCKY YUSTIKA CLAUDYA FARAHSYA P BANGKALAN 1999-04-03
110 9998853017 MOH.MUHAJIR L PALANGKARAYA 1999-04-06
111 9995206804 MUFARROHA P BANGKALAN 1999-04-10
112 9995206585 DITA ASHARI P BANGKALAN 1999-04-12
113 9995206586 MUJI LESTARI P BANJARMASIN 1999-04-25
114 9995206777 KHOTIBUL LUTFI L BANGKALAN 1999-04-29
115 9995206786 USMAN BAIEDOWI L SURABAYA 1999-05-13
116 9995206766 HOLIFATUN P BANGKALAN 1999-05-19
117 9995206587 MOH. MUHLIS L BANGKALAN 1999-05-22
118 9995206712 WAHYUDI L KATINGAN 1999-05-25
119 9995206657 AAN ALFARIZI L BANGKALAN 1999-05-31
120 9995206714 INDAH PERMATASARI P BANGKALAN 1999-06-03
121 9995206767 MELDA RAHMAN P BANGKALAN 1999-06-04
122 9995206754 ZAINAL RIFQI PRATAMA L BANGKALAN 1999-06-05
123 9995206588 AN NOVAL QIBRAN L BANGKALAN 1999-06-06
100871548.xls.ms_office
4
PRANCAK 7 20531191
SEPULU 7 20531191
SEPULU 7 20531191
SEPULU 7 20531191
BANYIOR 7 20531191
GANGSEYAN 7 20531191
SEPULU 7 20531191
BANYIOR 7 20531191
SEPULU 7 20531191
SEPULU 7 20531191
SEPULU 7 20531191
SEPULU 7 20531191
SEPULU 7 20531191
SEPULU 7 20531191
KALABETAN 7 20531191
SEPULU 7 20531191
KELBUNG 7 20531191
SEPULU 7 20531191
SEPULU 7 20531191
SEPULU 7 20531191
PRANCAK 7 20531191
BANYONING DAJAH,GEGER 7 20531191
GANGSEYAN 7 20531191
DS.KLABETAN KEC.SEPULU 7 20531191
SEPULU 7 20531191
BANGSEREH 7 20531191
SEPULU 7 20531191
PRANCAK 7 20531191
BANYIOR 7 20531191
BANYIOR 7 20531191
SEPULU 7 20531191
SEPULU 7 20531191
LEMBUNG PASESER 7 20531191
SEPULU 7 20531191
JOMBANG 7 20531191
MANERON 7 20531191
LEMBUNG PASESER 7 20531191
PRANCAK 7 20531191
SEPULU 7 20531191
PRANCAK 7 20531191
GANGSEYAN 7 20531191
SEPULU 7 20531191
SEPULU 7 20531191
SEPULU 7 20531191
KELBUNG 7 20531191
SEPULU 7 20531191
BANYIOR 7 20531191
SEPULU 7 20531191
BANYONING DAJAH,GEGER 7 20531191
TANAGURAH TIMUR 7 20531191
BANYIOR 7 20531191
BANYIOR 7 20531191
SEPULU 7 20531191
SEPULU 7 20531191
SEPULU 7 20531191
BANYIOR 7 20531191
PRANCAK 7 20531191
KELBUNG 7 20531191
PRANCAK 7 20531191
SEPULU 7 20531191
SEPULU 7 20531191
BANYIOR 7 20531191
100871548.xls.ms_office
5
124 9995206806 RIZAL AKBAR L BANGKALAN 1999-06-08
125 9995206589 ZAINAL ABIDIN L BANGKALAN 1999-06-22
126 9995206778 YUANITA PRATIWI P BANGKALAN 1999-06-23
127 9995206590 MOH. SU'UD L BANGKALAN 1999-06-24
128 9995206756 MUHAMMAD RAHMATULLAH L BANGKALAN 1999-06-28
129 9995206757 MUHAMMAD ADAM L BLITAR 1999-06-28
130 9995206716 DEVI SULISTIYAWATI PUTRI P BANGKALAN 1999-06-29
131 9995206591 MUYASIR L BANGKALAN 1999-07-05
132 9995206768 LUTFI DHANY FERDIANSYAH L JOMBANG 1999-07-05
133 9995206759 NANDY ILA FITHRIYA P BANGKALAN 1999-07-09
134 9995206718 DEVI NURMALA P BANGKALAN 1999-07-17
135 9995206769 SULAIMAN L BANGKALAN 1999-07-19
136 9995206675 MUH. LAHAM PUTRA L MALANG 1999-07-19
137 9995206727 FATUR ROHMAN L BANGKALAN 1999-07-27
138 9995206789 AQY ARDIAN. S L BANGKALAN 1999-08-02
139 9995206719 WARDATUL HASANAH P BANGKALAN 1999-08-04
140 9995206592 MUKARROMAH P BANGKALAN 1999-08-06
141 9995206771 MURNI P BANGKALAN 1999-08-09
142 9993208300 Anita Sari Dewi P BANGKALAN 1999-08-24
143 9995206593 AGUS HASIP L BANGKALAN 1999-08-25
144 9995206772 ISMAWATI DEWI P BANGKALAN 1999-08-27
145 9995206594 SUMIATI P PALANGKARAYA 1999-09-04
146 9995206773 NUR EMIL SHELA P BANGKALAN 1999-09-07
147 9995206663 FAIKOTUL JANNAH P BANGKALAN 1999-09-09
148 9995206595 SOVIA NINGSIH P PALANGKARAYA 1999-09-09
149 9995206630 MUHAMMAD YASIR L PALANGKARAYA 1999-09-30
150 9995206650 PARISAL AKBAR L BANGKALAN 1999-10-09
151 9995206807 ISTIQOMAH P BANGKALAN 1999-10-20
152 9995206597 SAIDATUL ALIYAH P PALANGKARAYA 1999-10-25
153 9995206640 YASIR L BANGKALAN 1999-10-28
154 0007338164 MOH ABDUS SOLEH L BANGKALAN 1999-10-29
155 9995206774 AINUR ROHMAH SYAFAATI P BANGKALAN 1999-11-04
156 9995206721 SISKA MAGHFIROH NUR ILAHI P BANGKALAN 1999-11-05
157 9982383025 ACH.FAWAID L BANGKALAN 1999-11-06
158 9995206779 AFAF QUR'ANIL AMINIH P BANGKALAN 1999-11-14
159 9995206676 MEDY ROZALIYATI P PALANGKARAYA 1999-12-04
160 9995206599 MUSLIHAH L BANGKALAN 1999-12-06
161 9995206633 IZZATUR ROHMAH P BANGKALAN 1999-12-16
162 9993642846 LAILA ANA SHOIMATUL JUM'AH P BANGKALAN 1999-12-23
163 9998853060 YUYUN P BANGKALAN 1999-12-26
164 0004627605 NUR ROHMATINI P BANGKALAN 2000-01-04
165 0004627606 RIZQUL HASAN P BANGKALAN 2000-01-14
166 0004627607 MILA HANIFAH P PALANGKARAYA 2000-01-29
167 0007338166 NASIRUL KHOHER L BANGKALAN 2000-02-07
168 0004627616 ROUDOTUL JENNAH P BANGKALAN 2000-02-22
169 0007670438 ROMINA P BANGKALAN 2000-05-03
170 0004627608 KUSSAIRI L BANGKALAN 2000-05-24
171 9995206715 NUR QOMARIYAH P BANGKALAN 2000-06-03
172 0004627630 AINUN JARIYAH P BANGKALAN 2000-06-25
173 9968532186 ABDUL WAFI L BANGKALAN 1996-04-13
174 9984100134 SUADI NINGRAT L BANGKALAN 1998-01-25
175 9996700015 WASIAH P Bangkalan 1999-04-02
176 9985147785 ALIYAH P Bangkalan 1998-04-08
177 9996700042 HAZIJATUL MUNAWAROH P Bangkalan 1999-10-09
178 9985147796 MISNATI P Bangkalan 1998-10-10
179 0070030657 YULIANA L Bangkalan 2007-11-07
180 9996700059 ABD. ROHMAN L Malaysia 1999-08-03
181 9996700066 MUSDALIVAH P Bangkalan 1999-04-07
182 9996700071 AINUL NAIM L Bangkalan 1999-01-05
183 9996700075 AHMAD YUSRON L Bangkalan 1999-07-25
184 9985147821 AINUL YAQIN L Bangkalan 1998-12-28
185 9974645683 HARIS L Bangkalan 1997-11-27
100871548.xls.ms_office
6
TANAGURAH 7 20531191
BANYIOR 7 20531191
SEPULU 7 20531191
BANYIOR 7 20531191
SEPULU 7 20531191
SEPULU 7 20531191
PRANCAK 7 20531191
BANYIOR 7 20531191
SEPULU 7 20531191
SEPULU 7 20531191
PRANCAK 7 20531191
SEPULU 7 20531191
LEMBUNG PASESER 7 20531191
PRANCAK 7 20531191
SEPULU 7 20531191
PRANCAK 7 20531191
BANYIOR 7 20531191
SEPULU 7 20531191
SEPULU 7 20531191
BANYIOR 7 20531191
SEPULU 7 20531191
BANYIOR 7 20531191
SEPULU 7 20531191
KLAPAYAN 7 20531191
BANYIOR 7 20531191
KALABETAN 7 20531191
KELBUNG 7 20531191
TANAGURAH 7 20531191
BANYIOR 7 20531191
KELBUNG 7 20531191
BANGSEREH 7 20531191
SEPULU 7 20531191
PRANCAK 7 20531191
BANGSEREH 7 20531191
SEPULU 7 20531191
LEMBUNG PASESER 7 20531191
BANYIOR 7 20531191
KALABETAN 7 20531191
GUNELAP 7 20531191
BENYONENG 7 20531191
BANYIOR 7 20531191
BANYIOR 7 20531191
BANYIOR 7 20531191
BANGSEREH 7 20531191
PRANCAK 7 20531191
BANYONING DAJAH,GEGER 7 20531191
BANYIOR 7 20531191
PRANCAK 7 20531191
TLANGOH 7 20531191
PRANCAK 7 20531191
BANYUSANGKAH,TJ.BUMI 7 20531191
Desa Kalabetan 7 20531191
Desa Kalabetan Sepulu 7 20531191
Desa Kalbetan, Kec.Sepulu 7 20531191
Desa Kalabetan - Kec.Sepulu 7 20531191
Desa Kalabetan - Sepulu 7 20531191
Desa Prancak- Sepulu 7 20531191
Desa Prancak 7 20531191
Desa Prancak 7 20531191
Prancak - sepulu 7 20531191
Desa Pancak 7 20531191
Desa Prancak 7 20531191
100871548.xls.ms_office
7
186 0005088304 FITRIA L Bangkalan 2000-02-27
187 9985147834 MUYASIR L Bangkalan 1998-04-20
188 9996700091 AL FARISI L Bangkalan 1999-08-28
189 9996700093 MAHFUD ZAHRONI L Bangkalan 1999-05-07
190 9996700094 ARUL L Bangkalan 1999-12-12
191 9996700099 SRI ANGGRAINI P Bangkalan 1999-08-17
192 9996700103 ACHMAD JELALUS SUYUTI L Sampang 1999-12-12
193 9996700105 FARID L Bangkalan 1999-03-24
194 9996700107 HASANAH P Bangkalan 1999-04-23
195 9985149213 YULIANA P BANGKALAN 1998-11-07
196 9996701720 MOH. ADI SUKRON L Bangkalan 1999-10-28
197 9985149235 SITI MAIMUNA P Bangkalan 1998-07-08
198 9996701723 MUYASSAROH P Bangkalan 1999-05-25
199 9974647295 ILFANATUS HASANAH P Bangkalan 1997-12-29
200 9996701731 AKMAL L Palangkaraya 1999-09-29
201 9985149240 MUYASSAROH P Bangkalan 1998-06-18
202 9996701734 REYNALDI AL FARIZI L Bangkalan 1999-02-19
203 9985160101 ROHIM L BANGKALAN 1998-03-06
204 9996702616 RISMA PUTRI MAYANGSARI P BANGKALAN 1999-02-20
205 9996702620 KHOIRUL UMAM L Bangkalan 1999-08-14
206 9996702622 MARSA'I L BANGKALAN 1999-05-05
207 9996702633 AINUN NAJIB SHOLEH L BANGKALAN 1999-04-17
208 9974648410 ALI ROMADON L BANGKALAN 1997-01-28
209 9985160142 SITI SOFIA P BANGKALAN 1998-11-26
210 9996702654 MOH. RIFKI L BANGKALAN 1999-05-13
211 9974648453 SULHAN EFENDI L Bangkalan 1997-05-08
212 9974648471 SOFIAH P BLITAR 1997-11-19
213 9996702682 IFATUR RAHMAH P SURABAYA 1999-10-09
214 9985160188 ALFIA P BANGKALAN 1998-06-26
215 9985160210 GUNAWAN L BANGKALAN 1998-03-24
216 9996702712 MARYATUN P Bangkalan 1999-01-01
217 9996702716 MOH. ROMLI L BANGKALAN 1999-09-29
218 9974648528 ALIMUDDIN L Bangkalan 1997-10-08
219 9996702798 HASIFUL UMAM L Bangkalan 1999-10-10
220 9985160280 KOMARUDDIN L Bangkalan 1998-09-29
221 9985160284 DENDI AL FAYED L BANGKALAN 1998-05-15
222 9985160362 MOHAMMAD AMARUL ALAM L Bangkalan 1998-09-27
223 9985160364 AINOEL ROZIQIN L Bangkalan 1998-11-09
224 9985160374 HUSNUL HASANAH P BANGKALAN 1998-08-15
225 9996702913 NINGSIH WULANDARI P BANGKALAN 1999-04-07
226 9996702915 NIRWANA NINGSIH P BANGKALAN 1999-12-08
227 9955183425 NUR ATIKA P Malaysia 1995-06-07
228 9996702923 AHMAD FAWAID L Bangkalan 1999-11-06
229 9985160391 FATMAWATI P BANGKALAN 1998-09-04
230 9985160407 SITI HALIMAH P Bangkalan 1998-10-24
231 9985160422 OLIVIA AHLUL MAGFIROH P Bangkalan 1998-08-08
232 9974648857 FITRIA P BANGKALAN 1997-06-12
233 9996702988 LULUK FAIDATUL RISKI P Bangkalan 1999-11-09
234 9985160484 LULUK MUBAROKAH P Bangkalan 1998-05-18
235 9996702993 NUR AROFAH P Bangkalan 1999-04-18
236 9996702994 ROSIDAH P Bangkalan 1999-06-21
237 9996702997 MUHASANAH P Bangkalan 1999-02-17
238 9996703005 SITI RAHMAWATI P BANGKALAN 1999-09-01
239 9996703006 HALIMATUS SAKDIYAH P Bangkalan 1999-08-08
240 9985160507 HOIRUN NISAK P Bangkalan 1998-01-01
241 9996703018 HOIRUN NISAK P Bangkalan 1999-01-01
242 9996703022 ACHMAD ROKY FAUZI L Bangkalan 1999-06-23
243 9996703028 MOH.ZAHRI L Bangkalan 1999-04-27
244 9996703036 FATHUL ARIFIN L PALANGKARAYA 1999-10-05
245 9996703040 SRI FATMALA P PALANGKARAYA 1999-11-14
246 9996703043 SITI NADIROH P BANGKALAN 1999-12-23
247 9968574112 SITI NUR ARBAIYAH P BANGKALAN 1996-03-27
100871548.xls.ms_office
8
Desa Prancak 7 20531191
Desa Prancak 7 20531191
Desa Prancak - Sepulu 7 20531191
Desa Prancak - Sepulu 7 20531191
Desa Prancak - Sepulu 7 20531191
Prancak - sepulu 7 20531191
Maneron- Sepulu 7 20531191
Desa Maneron - Sepulu 7 20531191
Desa Maneron - Sepulu 7 20531191
Desa Kalabetan,sepulu 7 20531191
Maneron - Sepulu 7 20531191
Maneron - Sepulu 7 20531191
Maneron-Sepulu 7 20531191
Desa Sepulu 7 20531191
Ds.Kalbetan -Sepulu 7 20531191
Desa kalabetan - Sepulu 7 20531191
Desa Sepulu 7 20531191
Sepulu 7 20531191
Desa Banyior, Kec.Sepulu 7 20531191
Sepulu 7 20531191
Sepulu 7 20531191
Sepulu 7 20531191
Desa Lembung Paseser, Kec.Sepulu 7 20531191
Desa Bangsereh - Sepulu 7 20531191
Desa Bannyior, Kec.Sepulu 7 20531191
Sepulu 7 20531191
Kelbung - Sepulu 7 20531191
Ds.Kelbung,Kec.Sepulu 7 20531191
Desa Kelbung- Sepulu 7 20531191
Desa Kelbung-Sepulu 7 20531191
Desa Kelbung - Sepulu 7 20531191
Desa Labuhan - Sepulu 7 20531191
Desa Labuhan-Sepulu 7 20531191
Desa Labuhan - Sepulu 7 20531191
Desa Labuhan-Sepulu 7 20531191
Desa Labuhan - Sepulu 7 20531191
Desa Labuhan - Sepulu 7 20531191
Desa Labuhan - Sepulu 7 20531191
Desa Labuhan - Sepulu 7 20531191
Desa Labuhan - Sepulu 7 20531191
Desa Labuhan - Sepulu 7 20531191
Desa Labuhan - Sepulu 7 20531191
Desa Bangsereh- Kec. Sepulu 7 20531191
Desa Labuhan - Kec.Sepulu 7 20531191
Desa Labuhan - Kec.Sepulu 7 20531191
Desa Labuhan - Kec.Sepulu 7 20531191
Desa Labuhan - Kec.Sepulu 7 20531191
Desa Labuhan - Kec.Sepulu 7 20531191
Desa Tanagurah Barat-Kec.Sepulu 7 20531191
Desa Tanagurah Barat 7 20531191
Desa Tanagurah Barat- Kec.Sepulu 7 20531191
Desa Tanagurah Barat - Kec.Sepulu 7 20531191
Desa Tanagurah Barat-Sepulu 7 20531191
Desa Tanaguah Barat - Kec.Sepulu 7 20531191
Desa Tanagurah Barat-Kec.Sepulu 7 20531191
Desa Tangurah barat - Kec.Sepulu 7 20531191
Desa Tangurah Barat - Kec.Sepulu 7 20531191
Desa Banyior - Kec.Sepulu 7 20531191
Desa Banyior ,Kec. Sepulu 7 20531191
Desa Banyior-Kec.Sepulu 7 20531191
Desa Banyior - Kec.Sepulu 7 20531191
SEPULU 8 20531191
100871548.xls.ms_office
9
248 9968511417 MOH. PENDI TRIAWAN L BANGKALAN 1996-06-02
249 9953987683 EKO SETIYONO L SEMARANG 1995-05-22
250 9963961028 FAJAR CHOIRUS SOLEH L BANGKALAN 1996-03-07
251 9983045628 RIEKI WAHYU ILLAHI R L BANGKALAN 1998-01-11
252 9942886590 SUPIYAH P MALAYSIA 1994-10-25
253 9973607646 IKROMAH P BANGKALAN 1997-12-04
254 9983045693 ULFATUL HASANAH P BANGKALAN 1998-05-13
255 9983068767 FATHUL MUIN L BANGKALAN 1998-06-22
256 9973645045 RISKIYATUL MUAWWENAH P PALANGKARAYA 1997-07-27
257 9983068773 RUKIYAH P BANGKALAN 1998-10-14
258 9983068774 SRI KOMARIYAH ULFA P BANGKALAN 1998-04-19
259 9983068776 A. FATAHILLAH L BANGKALAN 1998-05-13
260 9973645058 A. RYAN RICKY PRATAMA PUTRA L BANGKALAN 1997-08-30
261 9973645101 AAN AINUL SIDIK L BANGKALAN 1997-05-28
262 9964720556 ABD.LATIP L PALANGKARAYA 1996-06-18
263 9983068819 ABD.RAHMAN L BANGKALAN 1998-07-10
264 9973645107 ABD.WAHID L PALANGKARAYA 1997-01-20
265 9964720565 ABDUL HAFID L BANGKALAN 1996-03-16
266 9973645118 ABDUL QOSIM L BANGKALAN 1997-02-22
267 9983068828 ABDUL ROZAQ L BANGKALAN 1998-03-03
268 9993867570 ABDULLAH FAQIH L BANGKALAN 1999-06-15
269 9973645130 ABDULLAH KHON L BANGKALAN 1997-08-30
270 9973645132 ABDUS SYAKUR L BANGKALAN 1997-11-22
271 9973648121 ACHMAD FAIS L BANGKALAN 1997-01-14
272 9973648132 ACHMAD FAUS L BANGKALAN 1997-01-14
273 9983081183 ADITIYA L Bangkalan 1998-07-07
274 9973648148 AHMAD ARIFIN L SURABAYA 1997-10-20
275 9973648150 AHMAD BADRUDIN L BANGKALAN 1997-08-04
276 9973648157 AHMAD DANI L Jember 1997-12-17
277 9954688559 AHMAD FAUZAN L BANGKALAN 1995-06-13
278 9983081201 AINUR ROSID L BANGKALAN 1998-09-23
279 9964724517 AISATUN L BANGKALAN 1996-06-22
280 9973648167 ALAIKAR ROHIM L BANGKALAN 1997-11-17
281 9954688560 ALBAB L BANGKALAN 1995-05-06
282 0060013713 ALVIN KHOIRON L BANGKALAN 1997-10-27
283 9973648170 AMIN MAKKI L BANGKALAN 1997-01-17
284 9983081220 ANDI ROMADHON L BANGKALAN 1998-01-20
285 9973648177 ANDRIAN MAULANA L BANGKALAN 1997-09-19
286 9983081232 APRILIA WARDHANI P Bangkalan 1998-04-02
287 9983081237 ARIF ARIFIN L PALANGKARAYA 1998-06-17
288 9983081244 ARIFATUN NAFISAH P BANGKALAN 1998-09-16
289 9964724524 ARISKA ALFIANI P BANGKALAN 1996-03-23
290 9983081247 ARVIN HAKIM ASHIDDIQI L BANGKALAN 1998-07-28
291 9964724528 ASMAUL HUSNA P BANGKALAN 1996-08-02
292 9973648189 ASRUL HAMID L BANGKALAN 1997-06-13
293 9983100369 Devi Tri Ratnasari P Bangkalan 1998-02-20
294 9993887090 Dewi Nawirah P Bangkalan 1999-11-06
295 9983100371 Febriani Nasuha P Bangkalan 1998-02-10
296 9973680443 Haryati P Bangkalan 1997-06-07
297 9973680445 Holel L Bangkalan 1997-02-13
298 9973680446 Idul Fitrih L Bangkalan 1997-09-07
299 9973680447 Kamelia P Bangkalan 1997-02-15
300 9973680449 Khoiruddin L Bangkalan 1997-10-28
301 9983100378 Kurniawati P Bangkalan 1998-04-24
302 9983100382 Laila Farah P Bangkalan 1998-09-09
303 9973680460 M.Jasuli L Bangkalan 1997-11-25
304 0060014005 M.Kwalid Fawazir L Bangkalan 2006-09-16
305 0060014006 Maisyaroh P Bangkalan 2006-07-29
306 9973680462 Moh.Mustain Hasan L Bangkalan 1997-03-18
307 9983100385 Muh.Muhajirin L Bangkalan 1998-05-17
308 9983100386 MUHAMMAD FATAHILLAH L MADURA 1998-08-08
309 9973680467 Muhammad Fawes L Bangkalan 1997-04-05
100871548.xls.ms_office
10
KALABETAN 8 20531191
BANYONENG LAOK 8 20531191
TANAGURAH BARAT 8 20531191
LABUHAN 8 20531191
GLINTONG - KLAMPIS 8 20531191
TANAGURAH TIMUR - SEPULU8 20531191
GUNELAP - SEPULU 8 20531191
PRANCAK 8 20531191
Banyior -Sepulu 8 20531191
Prancak -Sepulu 8 20531191
Sepulu 8 20531191
Kelbung - Sepulu 8 20531191
Sepulu 8 20531191
Sepulu 8 20531191
Banyior- Sepulu 8 20531191
Banyior - Sepulu 8 20531191
Maneron - Sepulu 8 20531191
Tana Gurah Barat - Sepulu 8 20531191
Sepulu 8 20531191
Banyior - Sepulu 8 20531191
Maneron - Sepulu 8 20531191
Sepulu 8 20531191
Gangseyan - Sepulu 8 20531191
Sepulu 8 20531191
Sepulu 8 20531191
Prancak 8 20531191
Kelbung - Sepulu 8 20531191
Kelbung 8 20531191
Prancak 8 20531191
Prancak 8 20531191
Sepulu 8 20531191
Kelbung 8 20531191
Klapyan - Sepulu 8 20531191
Gangseyan - Sepulu 8 20531191
Maneron - Sepulu 8 20531191
Sepulu 8 20531191
Sepulu 8 20531191
Banyior - Sepulu 8 20531191
SEPULU 8 20531191
Sepulu 8 20531191
Prancak 8 20531191
Sepulu 8 20531191
Prancak 8 20531191
Kelbung - Sepulu 8 20531191
Sepulu 8 20531191
Sepulu 8 20531191
Banyoning Dajah 8 20531191
Sepulu 8 20531191
Sepulu 8 20531191
Kelbung - Sepulu 8 20531191
Gangseyan -Sepulu 8 20531191
Sepulu 8 20531191
Maneron - Sepulu 8 20531191
Sepulu 8 20531191
Sepulu 8 20531191
Kelbung - Sepulu 8 20531191
Sepulu 8 20531191
Sepulu 8 20531191
Sepulu 8 20531191
Maneron - Sepulu 8 20531191
Sepulu 8 20531191
Sepulu 8 20531191
100871548.xls.ms_office
11
310 9983100394 Muhammad Yusri L Bangkalan 1998-02-02
311 9973680468 Muhassin Iqbal Assyari L Bangkalan 1997-12-31
312 9983100395 Mutmainnah P Bangkalan 1998-01-01
313 9983100396 Nur Widiyawati P Bangkalan 1998-11-07
314 9964748047 Nuril Musdalifah P Bangkalan 1996-07-08
315 9973680474 Putantra Bery Yulianza L Bangkalan 1997-07-21
316 9983100401 Raudhatul Jannah P Bangkalan 1998-08-28
317 9983100402 SIFAUS SUDUR L BANGKALAN 1998-07-11
318 9973680476 Siti Ramlah P Bangkalan 1997-06-03
319 9993887120 Siti Rosalina P Bangkalan 1999-02-13
320 9983100405 Siti Zulaiha Ardiana P Bangkalan 1998-02-11
321 9983100406 Solafuddin L Bangkalan 1998-05-18
322 9973680478 Subakti Ahmad Ishaq L Sidoarjo 1997-10-26
323 9964748062 Zulaikha P Bangkalan 1996-04-09
324 9973680480 Ummy Maysaroh P Bangkalan 1997-11-07
325 9973680481 Yati Oktavia P Malaysia 1997-03-10
326 9973680482 Zainal Andry Yusuf L Bangkalan 1997-02-17
327 0060014012 Zaini L Bangkalan 2006-04-16
328 9973687589 Aini Wulandari P Bangkalan 1997-08-03
329 9973687703 Endang Fitriyaningsih P Bangkalan 1997-09-09
330 9983108620 Fahris L Bangkalan 1998-09-08
331 0070010203 Faisal Ulum L Bantul 2007-06-23
332 9983108629 Fitriyatus Syariah P Bangkalan 1998-02-18
333 9983108632 Gufron L Bangkalan 1998-10-10
334 9993906852 Hamidatul Hasanah P Bangkalan 1999-10-29
335 9983108638 Hulyatul Jamilah P Bangkalan 1998-12-08
336 9973687716 Husnul Yatik As'ari P Bangkalan 1997-09-16
337 9983108646 Irman Hardiyanto L Bangkalan 1998-06-01
338 9983108648 Jasimul Yaqin L Bangkalan 1998-07-03
339 9983108652 Juliani Rohmah P Bangkalan 1998-07-16
340 9973687730 Komariyah P Bangkalan 1997-12-21
341 9973687731 Lukmanul Hakim L Bangkalan 1997-11-01
342 9983108656 M.Taufiq L Surabaya 1998-02-04
343 9964765419 Misbar L Bangkalan 1996-06-25
344 9973687738 Moh.Kholilur Rohman L Bangkalan 1997-07-07
345 9973687739 Moh.yasir L Bangkalan 1997-08-25
346 9964765428 Moh.Jumali L Bangkalan 1996-09-07
347 9983108664 Moh. Rizal Arisman L Bangkalan 1998-11-02
348 9983108666 Moh.Zainul Arifin Faiz L Bangkalan 1998-01-12
349 9983108669 Muddalifah P Bangkalan 1998-01-06
350 9973687747 Muhafadoh P Bangkalan 1997-09-19
351 9983108675 Muhammad Imam L Bangkalan 1998-07-05
352 9983108676 Munawaroh P Bangkalan 1998-03-24
353 9983108677 Nikmatus Salamah P Bangkalan 1998-07-07
354 9973687750 Qurrotul A' yun P Bangkalan 1997-09-04
355 9973687752 Rahmadani P Bangkalan 1997-06-02
356 9964765447 Roudhatul Jannah P Bangkalan 1996-12-26
357 9973687755 Samsul Anwar L Bangkalan 1997-10-05
358 9973687757 Sodik Irawanto L Ambon 1997-08-22
359 9983108692 Sofiatul Ainiyah P Bangkalan 1998-05-12
360 9983108693 Suhailah P Bangkalan 1998-02-17
361 9973687763 Sukiman L Bangkalan 1997-05-20
362 9964765461 Suliyah P Bangkalan 1996-11-10
363 9983108695 Wasilatul Adhimah P Bangkalan 1998-03-23
364 9983108696 Yudi Hendrawan L Palangkaraya 1998-05-10
365 9993906900 Ani Maftuhah P Bangkalan 1999-05-02
366 9973688359 Ahmad Rizal L Bangkalan 1997-07-19
367 9973688364 Azizah P Bangkalan 1997-04-18
368 9964766258 Choirul Anam L Bangkalan 1996-02-27
369 9973688373 Defri Dimas Santara L Bangkalan 1997-05-28
370 9973688387 Dharmawan Widhianto L Bangkalan 1997-09-17
371 9973688391 Edi Afandi L Bangkalan 1997-02-01
100871548.xls.ms_office
12
Sepulu 8 20531191
Prancak - Sepulu 8 20531191
Maneron - Sepulu 8 20531191
Prancak - sepulu 8 20531191
Prancak -Sepulu 8 20531191
Sepulu 8 20531191
Sepulu 8 20531191
Klabean - Sepulu 8 20531191
Kalabetan Sepulu 8 20531191
Labuhan - Sepulu 8 20531191
Sepulu 8 20531191
Kelbung - Sepulu 8 20531191
Sepulu 8 20531191
Prancak 8 20531191
Labuhan - Sepulu 8 20531191
Banyoning Dajah - Geger 8 20531191
Sepulu 8 20531191
Kelbung 8 20531191
Prancak 8 20531191
Banyusangkah - Tj.Bumi 8 20531191
Lembung Paseser 8 20531191
Sepulu 8 20531191
Prancak - Sepulu 8 20531191
Banyoning Dajah 8 20531191
Ds.Banyoning Dajah- Geger 8 20531191
Prancak -Sepulu 8 20531191
Sepulu 8 20531191
Maneron - Sepulu 8 20531191
Sepulu 8 20531191
Sepulu 8 20531191
Sepulu 8 20531191
Sepulu 8 20531191
Ds.Kelbung - Sepulu 8 20531191
Maneron - Sepulu 8 20531191
Maneron - Sepulu 8 20531191
Sepulu 8 20531191
Maneron - Sepulu 8 20531191
Sepulu 8 20531191
Prancak - Sepulu 8 20531191
Sepulu 8 20531191
Banyior - Sepulu 8 20531191
Sepulu 8 20531191
Ds.Bangsereh - Sepulu 8 20531191
Ds.Tangurah Timur - Sepulu 8 20531191
Prancak - Sepulu 8 20531191
Ds.Tangurah Barat - Sepulu 8 20531191
Lembung Paseser 8 20531191
Lembung Paseser - Sepulu 8 20531191
Ds. Lembung Paseser 8 20531191
Ds.Banyior -Sepulu 8 20531191
Sepulu 8 20531191
Maneron - Sepulu 8 20531191
Sepulu 8 20531191
Sepulu 8 20531191
Ds.Gangseyan - Sepulu 8 20531191
Ds.Bangsereh - Sepulu 8 20531191
Lembung Paseser 8 20531191
Sepulu 8 20531191
Sepulu 8 20531191
Banyoning Dajah - Geger 8 20531191
Maneron - Sepulu 8 20531191
Sepulu 8 20531191
100871548.xls.ms_office
13
372 9983109106 Farid L Bangkalan 1998-08-04
373 9973688414 Fawaidur Rohmah P Bangkalan 1997-12-09
374 9973688429 Gita Andriani P Bangkalan 1997-03-29
375 9993907378 Istilatifah P Bangkalan 1999-04-22
376 9983109121 Khoirul Anam L Bangkalan 1998-09-10
377 9973688439 Kurrohul Aini P Bangkalan 1997-02-21
378 9983109148 Matsa'i L Bangkalan 1998-03-24
379 9983109149 Miftahul Ulum L Bangkalan 1998-12-22
380 9983109151 Moch Helmi L Bangkalan 1998-10-11
381 9973688459 Moh.Hamim L Bangkalan 1997-05-12
382 9973688499 Moh. Ilham Burhanuddin L Bangkalan 1997-06-09
383 9973688501 Mohammad Amin L Bangkalan 1997-06-17
384 9993907406 Muhammad Faiz L Selangor 1999-03-24
385 9993907416 Muna Santi P Bangkalan 1999-01-29
386 9973688512 Mustofa L Bangkalan 1997-07-15
387 9973688532 Nur Nafisah P Malaysia 1997-05-23
388 9964766369 Nurul Qomariyah P Bangkalan 1996-04-05
389 9973688537 Rosiyanto L Bangkalan 1997-08-07
390 9983109275 Saiful Arif L Bangkalan 1998-07-06
391 9973688548 Siti Fatimah P Palangkaraya 1997-06-13
392 9983109288 Siti Mukarromah P Bangkalan 1998-05-14
393 9973688558 Siti Sofiyah P Bangkalan 1997-07-20
394 9983109309 Sohida P Bangkalan 1998-06-16
395 9983109313 Suaidah P Bangkalan 1998-02-15
396 9973688567 Ulvatun Anisah P Banyumas 1997-08-28
397 9964766382 Usman Affan L Bangkalan 1996-10-04
398 9983109327 Fathur Rohman L Bangkalan 1998-11-09
399 9954726825 Abdul Bahri L Bangkalan 1995-10-07
400 9973688632 Didik Ardiansyah L Bangkalan 1997-06-17
401 9973688643 Evien Febrina Suryani P Trenggalek 1997-02-05
402 9973688648 Fadilatus Sholehah P Bangkalan 1997-09-04
403 9973688663 Fathur Rosi L Bangkalan 1997-03-15
404 9983109387 Fatimatus Zahroh P Bangkalan 1998-04-02
405 9973688669 Heri Novrizal L Palangkaraya 1997-11-21
406 9983109391 Homsatun P Bangkalan 1998-03-26
407 9983109394 Hoyriyah P Bangkalan 1998-05-13
408 9964766448 Ika yanti P Lamongan 1996-10-27
409 9983109402 Jemiatul Arofah P Bangkalan 1998-07-03
410 9983109403 Khoirul Maulana L Palangkaraya 1998-07-07
411 9983109405 Khoibul Umam L Bangkalan 1998-05-20
412 9983109415 Lukman Hakim L Bangkalan 1998-11-18
413 9983109418 M.Hevky Adhayadus Salam L Sidoarjo 1998-04-18
414 9983109419 Mahsun L Bangkalan 1998-06-15
415 9973688707 Marsup L Bangkalan 1997-10-03
416 9973688710 Mofid Firdauzi L Bangkalan 1997-11-06
417 9973688713 Moh.Alif Huzeini L Surabaya 1997-02-17
418 9973688715 Mutmainnah P Bangkalan 1997-04-25
419 9973688719 Muzayyanah P Bangkalan 1997-11-28
420 9983109428 Nahlah Rohmatul Jannah P Madura 1998-05-07
421 9983109429 Nainul Wafa L Bangkalan 1998-04-21
422 9983109434 Nur Halisa P Bangkalan 1998-08-29
423 9973688801 Sami Sulaiman L Bangkalan 1997-11-14
424 9973688804 Siti Sahroh P Bangkalan 1997-12-12
425 9973688807 Stiven Denanta L Bangkalan 1997-04-05
426 9983109482 Sulaimah P Bangkalan 1998-06-21
427 9983109487 Syaiful Rizal L Bangkalan 1998-06-21
428 9973688819 Ulfaroh P Bangkalan 1997-04-13
429 9973688823 Yunus L Bangkalan 1997-10-19
430 9973700103 Badriyah P Bangkalan 1997-03-03
431 9983120857 Faizarizta Maulana L Bangkalan 1998-03-10
432 9964767974 Hairus Soleh L Bangkalan 1996-09-03
433 9983120870 Hoirul Anam L Bangkalan 1998-06-19
100871548.xls.ms_office
14
Lembung Paseser - Sepulu 8 20531191
Prancak - Sepulu 8 20531191
Prancak - Sepulu 8 20531191
Ds.Tanagurah Barat - Sepulu 8 20531191
Prancak - Sepulu 8 20531191
Sepulu 8 20531191
Ds.Banyoneng Dajah - Geger 8 20531191
Klapyan - Sepulu 8 20531191
Prancak - Sepulu 8 20531191
Sepulu 8 20531191
Maneron - Sepulu 8 20531191
Ds.Banyusangkah Tj.Bumi 8 20531191
Ds.Kalabetan - Sepulu 8 20531191
Ds.Banyoning Dajah - Geger 8 20531191
Ds.Maneron 8 20531191
Ds.Labuhan - Sepulu 8 20531191
Sepulu 8 20531191
Ds.Labuhan - Sepulu 8 20531191
Prancak - Sepulu 8 20531191
Ds. Kelbung Sepulu 8 20531191
Ds.Saplasah - Sepulu 8 20531191
Ds.angurah Barat - Sepulu 8 20531191
Prancak - Sepulu 8 20531191
Lembung Paseser - Sepulu 8 20531191
Prancak - Sepulu 8 20531191
Maneron - Sepulu 8 20531191
Ds.Banyoneng Dajah - Geger 8 20531191
Ds. Banyoneng Dajah - Sepulu 8 20531191
Ds.Maneron - Sepulu 8 20531191
Sepulu 8 20531191
Sepulu 8 20531191
Prancak - Sepulu 8 20531191
Lembung Paseser Sepulu 8 20531191
Ds.Kalabetan Sepulu 8 20531191
Sepulu 8 20531191
Prancak - Sepulu 8 20531191
Ds.Lembung Paseser - Sepulu 8 20531191
Prancak - Sepulu 8 20531191
Ds.Kalabetan - Sepulu 8 20531191
Prancak - Sepulu 8 20531191
Prancak - Sepulu 8 20531191
Asem Jajar - Ahatan Sepulu 8 20531191
Ds.Banyusangkah - Tj.Bumi 8 20531191
Ds.Kelbung - Sepulu 8 20531191
Ds.Lembung Paseser - Sepulu 8 20531191
Sepulu 8 20531191
Ds.Kelbung -Sepulu 8 20531191
Prancak - Sepulu 8 20531191
Sepulu 8 20531191
Sepulu 8 20531191
Sepulu 8 20531191
Prancak - Sepulu 8 20531191
Ds.Lembung Paseser - Sepulu 8 20531191
Sepulu 8 20531191
Banyior - Sepulu 8 20531191
Prancak -Sepulu 8 20531191
Kelbung - Sepulu 8 20531191
Prancak - Sepulu 8 20531191
Maneron - Sepulu 8 20531191
Ds.Lembung Paseser - Sepulu 8 20531191
Sepulu 8 20531191
Kelbung - Sepulu 8 20531191
100871548.xls.ms_office
15
434 9964767984 HARTINA NINGSIH P Bangkalan 1996-08-11
435 9954728314 Ilham Budiaman L Bangkalan 1995-07-14
436 9973700121 Jamilatul Mar'ah P Bangkalan 1997-07-15
437 9973700123 Krusita Arifin P Bangkalan 1997-10-10
438 9983120878 Kurnia Sandi L Bangkalan 1998-02-15
439 9993909241 Mahsus Riyadi L Bangkalan 1999-06-12
440 9983120881 Maymuna P Bangkalan 1998-03-12
441 9964767988 Matin Rabbani L Bangkalan 1996-12-21
442 9973700128 Mirna Rohmania P Bangkalan 1997-09-07
443 9983120885 Moh.Iqbal Habibi L Bangkalan 1998-02-15
444 9983120890 MOH. SAHID L BANGKALAN 1998-05-12
445 9983120895 Moh.Sifa'ul Khulub L Bangkalan 1998-05-21
446 9973700137 Moh.Shofi L Bangkalan 1997-08-02
447 9983120919 Moh.Wasil Syahroni L Bangkalan 1998-11-07
448 9973700163 MUTMAINNAH P BANGKALAN 1997-02-02
449 9973700165 Nofi Silistiana P Bangkalan 1997-11-24
450 9983120928 Nur Zaitur Reza Fyka Anjani P Bangkalan 1998-07-01
451 9993909264 Rezekita Fitria Indah Aurelia P Palangkaraya 1999-01-18
452 9983120936 Rofiana Nur Azizah P Gresik 1998-03-29
453 9973700169 Roudhotul Jannah P Bangkalan 1997-04-06
454 9954728361 Suleha P Bangkalan 1995-06-20
455 9964768013 Toricxyl Yakin L Bangkalan 1996-11-13
456 9964768021 Uswatun Hasanah P Bangkalan 1996-07-09
457 9973700192 Wasilah P Bangkalan 1997-10-17
458 9983120965 Wasilatur Rofiah P Bangkalan 1998-03-04
459 9964768722 Ahmad Baidowi L Bangkalan 1996-03-22
460 9983121562 Dewi P Palangkaraya 1998-08-23
461 9993909962 Dian Islamiati P Bangkalan 1999-04-04
462 9973700971 Dian Handayani P Bangkalan 1997-12-12
463 9973700974 Djamaluddin L Bangkalan 1997-03-04
464 9954728921 Fathor Rosi L Bangkalan 1995-06-19
465 9973700978 Fathur Rohman L Bangkalan 1997-01-05
466 9973700980 Haryadi L Bangkalan 1997-07-07
467 9983121569 Ilmiyatul Firdaus P Bangkalan 1998-04-21
468 9983121570 Istikhoroh P Bangkalan 1998-09-27
469 9973700983 Khusnul Khotimah P Bangkalan 1997-09-06
470 9973700988 Lefia Sakina P Pasuruan 1997-12-13
471 9983121574 Lutfi Asrori L Bangkalan 1998-10-14
472 9983121577 M.B. Jauhari L Bangkalan 1998-07-28
473 9973700991 M. Syaiful Bahri L Bangkalan 1997-04-07
474 9973700995 Moh.Muhri L Bangkalan 1997-11-16
475 9964768848 Muhammad Ali Imbron L Bangkalan 1996-10-27
476 9983121581 Moh.Sofi L Bangkalan 1998-07-10
477 9964768851 Moh.Surul L Bangkalan 1996-09-12
478 9983121582 Muhammad Weridatul Khoir L Bangkalan 1998-04-30
479 9983121583 Muhammad Hafid L Surabaya 1998-07-27
480 9973701007 Musdalifah P Bangkalan 1997-07-23
481 9973701009 Novi Lailatul Arba' P Bangkalan 1997-11-25
482 9973701013 Nur Afifah P Bangkalan 1997-08-01
483 9983121594 Nur Safitri P Bangkalan 1998-01-29
484 9973701027 Nurul Yaqinah P Surabaya 1997-12-06
485 9973701030 Prayogha Dwi Christyan L Bangkalan 1997-06-04
486 9983123100 Reny Kusuma Wardhani P Bangkalan 1998-11-16
487 9983123103 Rihomah P Bangkalan 1998-01-12
488 9983123107 Siful Anwar L Palangkaraya 1998-02-11
489 9983123110 Sunarti P Palangkaraya 1998-10-07
490 9964780303 Taufikur Rohman L Bangkalan 1996-05-04
491 9983123114 Tohari L Bangkalan 1998-07-15
492 9983123117 Zamrotus Zahro P Bangkalan 1998-07-14
493 9973703273 Chusin Mubaroq L Sambas 1997-08-14
494 9973703274 Farisal Aiman L Bangkalan 1997-04-07
495 9983124005 Fatimatus Zahroh P Bangkalan 1998-11-12
100871548.xls.ms_office
16
Maneron - Sepulu 8 20531191
Banyusangkah - Sepulu 8 20531191
Ds.Labuhan - Sepulu 8 20531191
Sepulu 8 20531191
Ds.Banyoning Dajah - Geger 8 20531191
Ds.Banyior - Sepulu 8 20531191
Sepulu 8 20531191
Ds.Labuhan - Sepulu 8 20531191
Sepulu 8 20531191
Sepulu 8 20531191
Ds.Banyior - Sepulu 8 20531191
Ds.Banyoning Dajah - Geger 8 20531191
Sepulu 8 20531191
Prancak - Sepulu 8 20531191
Ds.Lembung Paseser -Sepulu 8 20531191
Ds.Labuhan - Sepulu 8 20531191
Sepulu 8 20531191
Ds.Kalbetan -Sepulu 8 20531191
Prancak - Sepulu 8 20531191
Ds.Banyior - Sepulu 8 20531191
Prancak - Sepulu 8 20531191
Sepulu 8 20531191
Sepulu 8 20531191
Ds.Kalbetan - Sepulu 8 20531191
Sepulu 8 20531191
Ds.Lembung Paseser - Sepulu 8 20531191
Ds.Kalbetan - Sepulu 8 20531191
Maneron - Sepulu 8 20531191
Maneron - Sepulu 8 20531191
Ds.Labuhan - Sepulu 8 20531191
Sepulu 8 20531191
Prancak -Sepulu 8 20531191
Sepulu 8 20531191
Sepulu 8 20531191
Ds.Lembung Paseser - Sepulu 8 20531191
Prancak - Sepulu 8 20531191
Sepulu 8 20531191
Prancak - Sepulu 8 20531191
Sepulu 8 20531191
Prancak - Sepulu 8 20531191
Ds. Bangsereh - Sepulu 8 20531191
Prancak -Sepulu 8 20531191
Ds.Gangseyan - Sepulu 8 20531191
Ds.Banyior - Sepulu 8 20531191
Maneron - Sepulu 8 20531191
Ds.Kelbung - Sepulu 8 20531191
Sepulu 8 20531191
Ds.Labuhan - Sepulu 8 20531191
Maneron - Sepulu 8 20531191
Maneron - Sepulu 8 20531191
Sepulu 8 20531191
Sepulu 8 20531191
Sepulu 8 20531191
Prancak - Sepulu 8 20531191
Sepulu 8 20531191
Ds.Kalbean - Sepulu 8 20531191
Sepulu 8 20531191
Sepulu 8 20531191
Maneron - Sepulu 8 20531191
Ds.Kalabetan - Sepulu 8 20531191
Sepulu 8 20531191
Ds.Kalbean -Sepulu 8 20531191
100871548.xls.ms_office
17
496 9973703278 Fatin Hanani P Bangkalan 1997-10-10
497 9973703279 Hainul Yakin L Sambas 1997-08-10
498 9954740843 Halil L Bangkalan 1995-06-09
499 9973703291 Inayatul Karomah P Bangkalan 1997-01-05
500 9973703312 Istibsaroh P Bangkalan 1997-12-04
501 9964781266 Khoirul Umam Hakim L Bangkalan 1996-06-12
502 9993922997 Luthfi L Bangkalan 1999-01-13
503 9973703328 Maisunnah P Malaysia 1997-06-22
504 9964781272 Moh.Yunus L Bangkalan 1996-05-21
505 9973703331 Moh.Fahruddin Fitrian Yahya L Kab.Pasir 1997-06-30
506 9964781281 Moh.Jabbar L Bangkalan 1996-05-26
507 9973703461 Moh.Mahfud L Bangkalan 1997-05-31
508 9993923079 Moh.Yazin L Bangkalan 1999-05-25
509 9973703619 Mohammad Afifuddin L Bangkalan 1997-11-06
510 9983124295 Mohammad Rizki Afandi L Bangkalan 1998-01-13
511 9973703671 Mohlis L Bangkalan 1997-09-28
512 9993923256 Muhammad Afif L Bangkalan 1999-01-19
513 9983124333 Musyfiqoh P Bangkalan 1998-11-06
514 9993923283 Nur Fadilah P Palangkaray 1999-11-05
515 9983124363 Nur Fitria P Bangkalan 1998-02-03
516 9983124364 Nurul Hisam L Bangkalan 1998-06-20
517 9973703721 Rif'ah P Bangkalan 1997-04-14
518 9964781607 Roudatul Jannah P Bangkalan 1996-11-07
519 9983124382 Rusdiana P Bangkalan 1998-05-19
520 9964781614 Safiah P Lubuk Besar 1996-07-05
521 9954741312 Saiful Anam L Bangkalan 1995-07-15
522 9993923316 Siti Maimuna L Bangkalan 1999-05-07
523 9954741318 Siti Subaida L Malaysia 1995-05-16
524 9983124414 Sofiatun Jamilah P Bangkalan 1998-03-28
525 9973703771 Suaibah Islamiyah P Bangkalan 1997-10-25
526 9983124419 Suhaymi Abi Julianto Eka Putra L Bangkalan 1998-07-03
527 9964781642 Syamsul Arifin L Bangkalan 1996-10-08
528 9973703776 Syarif Hidayatullah L Bangkalan 1997-11-09
529 9973703778 Taufikur Rohman L Bangkalan 1997-06-16
530 9983124423 Vivin Ariyani P Palangkaraya 1998-06-26
531 9973703780 Nur Hanizah P Bangkalan 1997-01-28
532 9958418954 SURYADI L Bangkalan 1994-12-19
533 9941509250 RUDI HARTONO L Bangkalan 1994-12-23
534 9958733645 ABD WADUD AMAMIL BUSORI L Bangkalan 1995-07-07
535 9968511835 MOH. ALI AKBAR L BANGKALAN 1996-01-01
536 9950149435 MOH.JAKFAR L Bangkalan 1996-06-15
537 9968511722 ISROIL L Bangkalan 1996-09-04
538 9968536199 AFDOLUDDIN FITROTUL R L Bangkalan 1996-12-31
539 9968511195 MOH.HAFIFI L Bangkalan 1995-09-20
540 9947635953 HAYAD L Bangkalan 1994-06-05
541 9948693395 SEIFUL ROHMAN L Bangkalan 1994-10-19
542 9958476070 NUR ROHMAN L Bangkalan 1995-08-25
543 9968511742 TIMANI P Bangkalan 1996-03-11
544 9968573962 NOVAL AMIN L Bangkalan 1996-03-23
545 9947610929 FAISAL EFENDI L BANGKALAN 1994-01-28
546 9947876534 SUHAIMI L BANGKALAN 1994-08-02
547 9947635920 KHOIRUL UMAM L KUALA PEMBUANG 1994-09-05
548 9947635937 ILHAM FAUZI L BANGKALAN 1994-11-22
549 9958475945 NOFAL L BANGKALAN 1995-04-18
550 9968511196 MOH. NABDI SALAM L PALANGKARAYA 1995-05-05
551 9958419826 LUKMAN L BANGKALAN 1995-05-24
552 9978310088 MOH. HAKIM L PALANGKARAYA 1995-05-28
553 9968573972 RIZKI ALFIANTO L BANGKALAN 1995-05-29
554 9958419833 JASIM MUNIR L BANGKALAN 1995-07-25
555 9968573986 MIFTAHUL RIZKI L BANGKALAN 1995-08-28
556 9958419841 HARVAN ZAINI L BANGKALAN 1995-09-05
557 9950149466 SUPRIYADI L BANGKALAN 1995-09-08
100871548.xls.ms_office
18
Ds.Lembung Paseser - Sepulu 8 20531191
Ds.Lembung Paseser - Sepulu 8 20531191
Ds.Gangseyan - Sepulu 8 20531191
Ds.Banyusangkah - Tj.Bumi 8 20531191
Ds.Saplasah - Sepulu 8 20531191
Ds.Kelbung - Sepulu 8 20531191
Ds.Gangseyan - Sepulu 8 20531191
Ds.Kelbung - Sepulu 8 20531191
Sepulu 8 20531191
Maneron - Sepulu 8 20531191
Ds.Gangseyan -Sepulu 8 20531191
Maneron - Sepulu 8 20531191
Ds.Banyoneng Lao' -Geger 8 20531191
Prancak - Sepulu 8 20531191
Ds.Labuhan -Sepulu 8 20531191
Ds.Labuhan - Sepulu 8 20531191
Sepulu 8 20531191
Maneron - Sepulu 8 20531191
Ds.Kelbung - Sepulu 8 20531191
Sepulu 8 20531191
Sepulu 8 20531191
Ds.Tanagurah Timur - Sepulu 8 20531191
Prancak - Sepulu 8 20531191
Sepulu 8 20531191
Ds.Kelbung - Sepulu 8 20531191
Ds.Banyoneng Dajah - Geger 8 20531191
Ds.Banyior - Sepulu 8 20531191
Ds.Labuhan - Sepulu 8 20531191
Sepulu 8 20531191
Sepulu 8 20531191
Sepulu 8 20531191
Sepulu 8 20531191
Ds.Kalabetan - Sepulu 8 20531191
Ds. Labuhan - Sepulu 8 20531191
Sepulu 8 20531191
Ds.Lembung Paseser - Sepulu 8 20531191
Banyior 9 20531191
Labuhan 9 20531191
Banyoneng dajah 9 20531191
MANERON 9 20531191
Banyusangkah 9 20531191
Kelbung 9 20531191
Prancak 9 20531191
Banyior 9 20531191
Sepulu 9 20531191
Glintong 9 20531191
Sepulu 9 20531191
Kelbung 9 20531191
Sepulu 9 20531191
PRANCAK 9 20531191
BANYONENG DAJAH 9 20531191
SEPULU 9 20531191
SEPULU 9 20531191
SEPULU 9 20531191
BANYIOR 9 20531191
MANERON 9 20531191
BANYIOR 9 20531191
SEPULU 9 20531191
MANERON 9 20531191
SEPULU 9 20531191
MANERON 9 20531191
BANYUSANGKA 9 20531191
100871548.xls.ms_office
19
558 9958476024 MUSTOFA L PALANGKARAYA 1995-09-24
559 9958419845 MUSTOFA L BANGKALAN 1995-10-06
560 9958475968 IFA FITRIYANA P BANGKALAN 1995-10-16
561 9958451722 NAFIATUR ROHMAH P BANGKALAN 1995-11-05
562 9958419779 NUR FUAT L BANGKALAN 1995-11-26
563 9978310099 MIFTAHUL ULUM L PALANGKARAYA 1995-12-12
564 9958475940 ALFI YASIN L BANGKALAN 1995-12-13
565 9958451729 SOLEHATIN P BANGKALAN 1995-12-25
566 9978370230 ILHAM WAHID L BANGKALAN 1996-01-01
567 9968536190 MUHAJIRIN L PALANGKARAYA 1996-01-01
568 9968798395 NURHAYATI P BANGKALAN 1996-01-01
569 9968511878 MAISAROH P BANGKALAN 1996-01-06
570 9988154580 MOH. JASAULLAH L BANGKALAN 1996-01-08
571 9968511405 MOH. MASKUR L BANGKALAN 1996-01-19
572 9968574109 KURNIA SAPUTRI P BANGKALAN 1996-01-30
573 9968574029 NUR AZIZAH P JEMBER 1996-02-24
574 9968574111 ABDUR RAHMAN SHALEH L BANGKALAN 1996-02-25
575 9968573959 BUDIONO L BANGKALAN 1996-03-03
576 9968574036 NUR HASANAH P BANGKALAN 1996-03-12
577 9958419820 VAWAIT L BANGKALAN 1996-03-28
578 9968536216 NURHIDAYATI P BANGKALAN 1996-04-17
579 9960188744 RIYA RUKMALA P BANGKALAN 1996-05-12
580 9968512268 NURUL AINI P BANGKALAN 1996-05-20
581 9958419766 JUHAIRIYAH L BANGKALAN 1996-05-25
582 9958419495 HAFID L BANGKALAN 1996-06-01
583 9968512177 FAUSIYAH P BANGKALAN 1996-06-06
584 9968573977 SARIFAH P BANGKALAN 1996-06-11
585 9968536209 SYAIFUL MA'MI L BANGKALAN 1996-06-11
586 9968536204 FATIMATUS ZAHROH P BANGKALAN 1996-06-15
587 9968573980 KHOTIBUL UMAM SUSANTO L BANGKALAN 1996-06-16
588 9960188752 JEFRI L BANGKALAN 1996-06-17
589 9968512178 HENDRA ARDIANSYAH L BANGKALAN 1996-06-22
590 9968532189 IMRON MARDJUKI L BANGKALAN 1996-06-27
591 9960188755 SULHAM L BANGKALAN 1996-07-03
592 9968573983 PUTRI HUMAYRO` P BANGKALAN 1996-07-27
593 9968536217 KHOIRUL IMAM L BANGKALAN 1996-07-28
594 9988153602 IIR HOIROTUNNISAH P BANGKALAN 1996-07-29
595 9968573984 UMMU SALAMAH P BANGKALAN 1996-08-05
596 9963529185 SAMSUL KOMARUDDIN L BANGKALAN 1996-08-05
597 9968536221 INDRI FAKUSLIN P JAKARTA UTARA 1996-08-14
598 9968512181 INDAH UTAMI SISKA DEWI P BANGKALAN 1996-08-17
599 9958476028 SRI MUSRIFAH P BANGKALAN 1996-08-18
600 9968511414 NUR HASLINA P BANGKALAN 1996-08-23
601 9968574053 MUYASSAROH P BANGKALAN 1996-08-26
602 9968573987 FAIZAL AZARI PRATAMA WHATON L BANGKALAN 1996-08-31
603 9968573988 SAIFUL RIZAL L BANGKALAN 1996-09-02
604 9968573989 ANI LUVITA SARI P PROBOLINGGO 1996-09-15
605 9968573992 ENDANG LESTARI MAIMUNA P BANGKALAN 1996-09-16
606 9968512183 SITI NUR AISYA P BANGKALAN 1996-09-19
607 9968573994 MUHAMMAD MUSAWWIRUL GOFFAR L BANGKALAN 1996-09-23
608 9968573995 NURUS SA'ADAH P BANGKALAN 1996-09-27
609 9968512275 MOH. FAIK SHOLEH L BANGKALAN 1996-10-04
610 9968512186 KOMAR L BANGKALAN 1996-10-09
611 9968512187 ARIFIN L BANGKALAN 1996-10-11
612 9968512188 HENDRI MASHUDI L BANGKALAN 1996-10-13
613 9968512189 SYAIFUL ROHMAN L BANGKALAN 1996-10-15
614 9968573997 SHOLAHUDDIN L BANGKALAN 1996-10-16
615 9968512190 MUFARROHAH P BANGKALAN 1996-10-17
616 9960188769 SOFIYANTO L BANGKALAN 1996-10-21
617 9968512191 MUSTAIN L BANGKALAN 1996-10-21
618 9968536225 FAHRUL KHAN L BANGKALAN 1996-10-21
619 9960188771 SLAMET HARIADI L BANGKALAN 1996-10-25
100871548.xls.ms_office
20
SEPULU 9 20531191
MANERON 9 20531191
SEPULU 9 20531191
PRANCAK 9 20531191
LABUHAN 9 20531191
BANYIOR 9 20531191
SEPULU 9 20531191
PRANCAK 9 20531191
SEPULU 9 20531191
PRANCAK 9 20531191
BANYONENG DAJAH 9 20531191
KELBUNG 9 20531191
LABUHAN 9 20531191
KALABETAN 9 20531191
SEPULU 9 20531191
SEPULU 9 20531191
SEPULU 9 20531191
SEPULU 9 20531191
SEPULU 9 20531191
MANERON 9 20531191
PRANCAK 9 20531191
BANYUSANGKA 9 20531191
MANERON 9 20531191
LABUHAN 9 20531191
KELBUNG 9 20531191
LABUHAN 9 20531191
SEPULU 9 20531191
PRANCAK 9 20531191
PRANCAK 9 20531191
SEPULU 9 20531191
BANYUSANGKA 9 20531191
LABUHAN 9 20531191
PRANCAK 9 20531191
BANYUSANGKA 9 20531191
SEPULU 9 20531191
PRANCAK 9 20531191
BANYIOR 9 20531191
SEPULU 9 20531191
MANERON 9 20531191
PRANCAK 9 20531191
LABUHAN 9 20531191
SEPULU 9 20531191
PRANCAK 9 20531191
SEPULU 9 20531191
SEPULU 9 20531191
SEPULU 9 20531191
SEPULU 9 20531191
SEPULU 9 20531191
LABUHAN 9 20531191
SEPULU 9 20531191
SEPULU 9 20531191
MANERON 9 20531191
LABUHAN 9 20531191
LANUHAN 9 20531191
LABUHAN 9 20531191
LABUHAN 9 20531191
SEPULU 9 20531191
LABUHAN 9 20531191
BANYUSANGKA 9 20531191
LABUHAN 9 20531191
PRANCAK 9 20531191
BANYYUSANGKA 9 20531191
100871548.xls.ms_office
21
620 9968511416 SITI AULIA NURYANI P PALANGKARAYA 1996-10-29
621 9968574063 M. AINUR ROHMAN L BANGKALAN 1996-11-04
622 9968536229 SOLEHAH P BANGKALAN 1996-11-06
623 9968536231 MUKARROMAH P BANGKALAN 1996-11-08
624 9968574122 NURUL HIKMAH P PALANGKARAYA 1996-11-09
625 9968512194 KURNIA ILAHI P BANGKALAN 1996-11-26
626 9968512195 AL IHRAM L BANGKALAN 1996-11-30
627 9968536210 BILQIS ANGELINA P SAUDI ARABIA 1996-12-02
628 9968512278 M. SUKRON MAKMUN L BANGKALAN 1996-12-05
629 9968536240 MAISUNAH P BANGKALAN 1996-12-20
630 9968574065 AZMININGRUM SUHAIFATROTIN P BANGKALAN 1996-12-23
631 9968573999 BUSTOMI L BANGKALAN 1996-12-31
632 9968511889 SULINAH P BANGKALAN 1997-01-01
633 9978311035 IFADOTUS SALIMAH P BANGKALAN 1997-01-01
634 9978311108 ACHMAD GUFRON L BANGKALAN 1997-01-05
635 9978310085 NUR ISMAWATI P PALANGKARAYA 1997-01-24
636 9978319598 FAWAID ROMADHON L BANGKALAN 1997-01-29
637 9978310762 ANISA SAFITRI P BANGKALAN 1997-02-12
638 9978310765 FITRIA RAHMAWATI P BANGKALAN 1997-02-15
639 9978370110 TAUFIQUR ROHMAN L BANGKALAN 1997-02-16
640 9950149445 HOIRUS JAILANI L BANGKALAN 1997-02-17
641 9978370113 AFRISAL AS'ARI L BANGKALAN 1997-02-21
642 9978311036 ISTIANAH P BANGKALAN 1997-02-28
643 9978332975 NOVIYANTI P BANGKALAN 1997-03-07
644 9978311110 QOMARUDDIN L BANGKALAN 1997-03-07
645 9968574034 MONA P BANGKALAN 1997-03-16
646 9978370117 HILYATUL MILLAH P BANGKALAN 1997-03-26
647 9978370173 ABROR ARIF L BANGKALAN 1997-04-10
648 9978311112 AMIN TAUFIK L BANGKALAN 1997-04-12
649 9978311113 MISKADI L BANGKALAN 1997-04-17
650 9978332978 ROIHANA P MALAYSIA 1997-04-22
651 9978311114 ACHMAD MUJAWAS L BANGKALAN 1997-04-24
652 9978370175 FAISAL KOMAR L BANGKALAN 1997-05-05
653 9968574055 BADRUS SOLEH L BANGKALAN 1997-05-07
654 9978319603 FIRDA P BANGKALAN 1997-05-11
655 9978310092 IMMAH P BANGKALAN 1997-05-19
656 9978370240 DEVI AMELIA P BANGKALAN 1997-05-20
657 9972705388 NURUL IZZAH P BANGKALAN 1997-05-21
658 9978370123 MOH. RIZKI WARDANY L BANGKALAN 1997-05-26
659 9978370181 MUHAMMAD MAKDUM L BANGKALAN 1997-05-30
660 9968511887 HAIRUS L BANGKALAN 1997-06-01
661 9978370124 FAQIH WALID L BANGKALAN 1997-06-02
662 9978370243 IMANIAR P BONERATE 1997-06-07
663 9978311038 HANIYAH P BANGKALAN 1997-06-10
664 9978956192 SOFIA P BANGKALAN 1997-06-12
665 9978311126 ANJU RAHMADI L BANGKALAN 1997-06-13
666 9978370451 MUSTAKIM L BANGKALAN 1997-06-19
667 9978311115 MABRUROH P BANGKALAN 1997-06-28
668 9972705389 FARIDAH P BANGKALAN 1997-06-30
669 9978370452 HOIRUN NISAK P BANGKALAN 1997-06-30
670 9978956042 RIFAL ARISANDI L BANGKALAN 1997-07-04
671 9978370245 YULIANA P BANGKALAN 1997-07-07
672 9978310093 YULI SARTIKA P SURABAYA 1997-07-07
673 9978370186 KHOIRIN NISAK P BANGKALAN 1997-07-22
674 9978370248 FAIZAL HUZEN L BANGKALAN 1997-08-01
675 9978370250 FALIHATUL NAJAH P BANGKALAN 1997-08-04
676 9978370130 NURUS SUBAHHI L BANGKALAN 1997-08-09
677 9978370454 IMAM JAMAL L BANGKALAN 1997-08-29
678 9978310096 KIPTIYAH P BANGKALAN 1997-09-04
679 9978310098 LULUK TULJENNAH P PALANGKARAYA 1997-09-05
680 9978332991 LIAVIANA P BANGKALAN 1997-09-14
681 9978370255 IQBALUS SURUR L BANGKALAN 1997-09-16
100871548.xls.ms_office
22
KALABETAN 9 20531191
SEPULU 9 20531191
PRANCAK 9 20531191
PRANCAK 9 20531191
SEPULU 9 20531191
LABUHAN 9 20531191
LABUHAN 9 20531191
PRANCAK 9 20531191
MANERON 9 20531191
PRANCAK 9 20531191
SEPULU 9 20531191
SEPULU 9 20531191
KELBUNG 9 20531191
LABUHAN 9 20531191
MANERON 9 20531191
BANYIOR 9 20531191
PRANCAK 9 20531191
KELBUNG 9 20531191
KELBUNG 9 20531191
SEPULU 9 20531191
BANYUSANGKA 9 20531191
SEPULU 9 20531191
LABUHAN 9 20531191
PRANCAK 9 20531191
MANERON 9 20531191
SEPULU 9 20531191
SEPULU 9 20531191
SEPULU 9 20531191
MANERON 9 20531191
MANERON 9 20531191
PRANCAK 9 20531191
MANERON 9 20531191
SEPULU 9 20531191
SEPULU 9 20531191
PRANCAK 9 20531191
BANYIOR 9 20531191
SEPULU 9 20531191
SEPULU 9 20531191
SEPULU 9 20531191
SEPULU 9 20531191
KELBUNG 9 20531191
SEPULU 9 20531191
SEPULU 9 20531191
LABUHAN 9 20531191
BANYUSANGKA 9 20531191
MANERON 9 20531191
TANAGURAH TIMUR 9 20531191
MANERON 9 20531191
KALABETAN 9 20531191
TANAGURAH TIMUR 9 20531191
BANYUSANGKA 9 20531191
SEPULU 9 20531191
BANYIOR 9 20531191
SEPULU 9 20531191
SEPULU 9 20531191
SEPULU 9 20531191
SEPULU 9 20531191
TANAGURAH TIMUR 9 20531191
BANYIOR 9 20531191
BANYIOR 9 20531191
PRANCAK 9 20531191
SEPULU 9 20531191
100871548.xls.ms_office
23
682 9978319608 QURROTUL AINY P BANGKALAN 1997-09-20
683 9970525330 SITI MUSEYYEROH P BANGKALAN 1997-09-26
684 9978310775 MAIMUNA P BANGKALAN 1997-09-30
685 9978319609 IRNA ROSYIDAH P BANGKALAN 1997-10-10
686 9958419247 SITI MARYAM P BANGKALAN 1997-10-12
687 9978310774 IKLIMAH P BANGKALAN 1997-10-12
688 9978311127 SITI MAISAROH P BANGKALAN 1997-10-15
689 9960188753 NURUL ALFIYAH P BANGKALAN 1997-10-17
690 9978311129 SOFIATUN P BANGKALAN 1997-11-10
691 9968532197 BAIQ SITI NOER AZIMA P BANGKALAN 1997-11-11
692 9968512192 KAMALIA PUTRI NINGSIH P BANGKALAN 1997-11-15
693 9978370460 MILANUR AINI P BANGKALAN 1997-11-18
694 9978332995 AISYAH P BANGKALAN 1997-11-24
695 9958419233 MOH. ARIF L BANGKALAN 1997-11-25
696 9978370461 SITI FATIMATUS ZAHROH P BANGKALAN 1997-12-17
697 9960188778 NURHASANAH L BANGKALAN 1997-12-20
698 9978311131 IKA HARDIYANI P BANGKALAN 1997-12-23
699 9978319615 ATIKA YUSTIANA P BANGKALAN 1997-12-27
700 9988154581 RIZA ANISHA ABDUL P BANGKALAN 1998-01-07
701 9988153588 SHOHIB RAMADHANI L BANGKALAN 1998-01-18
702 9968176170 CHOLILUR ROHMAN ARIP L BANGKALAN 1998-02-02
703 9988154648 PUTRIYANA P BANGKALAN 1998-02-14
704 9988176172 AHMAD WARISI L BANGKALAN 1998-02-27
705 9988154585 NURUL MASMUNAH P BANGKALAN 1998-03-03
706 9988172964 ROBIATUL ADAWIYAH P BANGKALAN 1998-03-04
707 9978319602 USWATUN HASANAH P BANGKALAN 1998-05-04
708 9968511415 MEGAWATI PURNAMA SARI P BANGKALAN 1998-05-08
709 9978310097 WAHIDATUL ASSIDIKIYAH P PALANGKARAYA 1998-09-07
710 9988213255 FALENTINO ROSI L BANGKALAN 1998-11-24
711 9942005034 BAGIATUS SHOLEHA P BANGKALAN 1994-07-29
712 9963540196 M. RIDOK L BANGKALAN 1996-02-04
713 9963540198 ZAENAL ABIDIN L BANGKALAN 1996-12-08
714 9963540199 FAHRUL HAMIM L BANGKALAN 1996-12-14
715 9972706022 ABDUL HOPI L BANGKALAN 1997-02-08
716 9972706023 MAHSUS L BANGKALAN 1997-03-17
717 9972706024 LULUK ATUL AINIYAH P BANGKALAN 1997-04-20
718 9972706026 FARIDAH P BANGKALAN 1997-06-30
719 9931400905 SAMSUL ARIFIN L PALANGKARAYA 1993-10-12
720 9942386757 MOH. HAFIDZ L BANGKALAN 1994-04-27
721 9947635946 ABDUL KOMAR L BANGKALAN 1994-05-21
722 9942386758 SAMI'I L BANGKALAN 1994-06-01
723 9942386759 MUHAMMAD HASYIM L BANGKALAN 1994-06-21
724 9942386760 SAFIRI L BANGKALAN 1994-08-02
725 9953987681 LULUK HIDAYATI P BANGKALAN 1995-04-23
726 9953987682 ABDUL ROHMAN L BANGKALAN 1995-05-01
727 9953987684 KHUSNUL HOTIMAH P PALANGKARAYA 1995-06-15
728 9953987685 SITI AISYAH P BANGKALAN 1995-07-07
729 9953987686 ASWAN MUBAROK L MALAYSIA 1995-07-14
730 9953987687 KIPTIYAH SUSI ROSANTI P BANGKALAN 1995-08-10
731 9953987688 ANANG MAKRUF L BANGKALAN 1995-10-06
732 9953987689 ABU KHORI BIN SYAIFUDDIN L BUKIT TENGAH 1995-10-31
733 9953987690 MOH WAHYUDI L PALANGKARAYA 1995-12-05
734 9963961022 MAD HUDI L BANGKALAN 1996-01-01
735 9963961023 HABIBUR ROCHMAN L BANGKALAN 1996-01-06
736 9963961024 MOH. ROMADHON L BANGKALAN 1996-01-20
737 9963961025 FATHUR ROHMAN L BANGKALAN 1996-01-27
738 9963961026 RAFAURRAFIK L BANGKALAN 1996-01-27
739 9963961027 SYAIFUL MUHIBBI L BANGKALAN 1996-02-08
740 9963961029 NOVAL AMIN L BANGKALAN 1996-03-23
741 9963961030 FATHONI L BANGKALAN 1996-04-09
742 9963961031 ROHANA P BANGKALAN 1996-05-11
743 9963961032 ALI SODIKIN L BANGKALAN 1996-05-17
100871548.xls.ms_office
24
PRANCAK 9 20531191
BANYUSANGKA 9 20531191
KELBUNG 9 20531191
PRANCAK 9 20531191
KALABETAN 9 20531191
KELBUNG 9 20531191
MANERON 9 20531191
BANYUSANGKA 9 20531191
MANERON 9 20531191
PRANCAK 9 20531191
LABUHAN 9 20531191
TANAGURAH BARAT 9 20531191
PRANCAK 9 20531191
KALABETAN 9 20531191
TANAGURAH TIMUR 9 20531191
BANYUSNAGKA 9 20531191
MANERON 9 20531191
PRANCAK 9 20531191
LABUHAN 9 20531191
BANYIOR 9 20531191
PRANCAK 9 20531191
MANERON 9 20531191
PRANCAK 9 20531191
LABUHAN 9 20531191
PRANCAK 9 20531191
PRANCAK 9 20531191
KALABETAN 9 20531191
BANYIOR 9 20531191
TANAGURAH BTIMUR 9 20531191
SEPULU 9 20531191
SEPULU 9 20531191
PRANCAK 9 20531191
PRANCAK 9 20531191
MANERON 9 20531191
SEPULU 9 20531191
BANYIOR 9 20531191
KALABETAN 9 20531191
GANGSEYAN 9 20531191
GANGSEYAN 9 20531191
SEPULU 9 20531191
MANERON 9 20531191
KALABETAN 9 20531191
BANYUSANGKA 9 20531191
PRANCAK 9 20531191
PRANCAK 9 20531191
KALABETAN 9 20531191
GANGSEYAN 9 20531191
SEPULU 9 20531191
BANYUSANGKA 9 20531191
GANGSEYAN 9 20531191
BANYONENG DAJAH 9 20531191
PRANCAK 9 20531191
PRANCAK 9 20531191
SEPULU 9 20531191
MANERON 9 20531191
BANYONENG LAOK 9 20531191
GANGSEYAN 9 20531191
GANGSEYAN 9 20531191
SEPULU 9 20531191
SAPLASAH 9 20531191
MANERON 9 20531191
KALABETAN 9 20531191
100871548.xls.ms_office
25
744 9963961033 WAN MUH.SYAQIQIZWAN L KUALA LUMPUR 1996-06-09
745 9963961034 SAMSUL ARIFIN L BANGKALAN 1996-06-09
746 9963961035 MESTUKI L PAMEKASAN 1996-06-11
747 9963961036 MAHMUD L BANGKALAN 1996-06-12
748 9963961037 FAIDATUL NIKMAH P BANGKALAN 1996-06-16
749 9963961038 MUNAWAROH P BANGKALAN 1996-06-17
750 9963961039 MOH. AMIN L BANGKALAN 1996-06-20
751 9963961040 ACHMAD SIDIK L BANGKALAN 1996-06-27
752 9963961041 MUHAMMAD SHOLEH L BANGKALAN 1996-06-27
753 9963961042 MUSDALIFAH P BANGKALAN 1996-07-12
754 9963961043 HOMZAH P BANGKALAN 1996-07-15
755 9963961044 NURUL HAFIFI L BANGKALAN 1996-07-16
756 9968574149 ACHMAD L BANGKALAN 1996-07-17
757 9963961045 HUSNUL MUBAROK L BANGKALAN 1996-08-02
758 9963961046 MOH. FAUSI L BANGKALAN 1996-08-05
759 9963961047 MOH. ALI SOPRIYAN L JEMBER 1996-08-07
760 9963961048 ALI MUNIR ROHMAN L BANGKALAN 1996-08-22
761 9963961049 FITRIA FERAYANTI P BANGKALAN 1996-09-06
762 9963961050 JUMADI ALDI L BANGKALAN 1996-09-08
763 9968511356 ABD. AZIZ L SAMBAS 1996-09-12
764 9963961051 AMIN L BANGKALAN 1996-09-19
765 9963961052 ABD. HALIM L BANGKALAN 1996-09-30
766 9963961053 NURFAIZAH P BANGKALAN 1996-10-10
767 9963961054 HOSEN L BANGKALAN 1996-10-13
768 9963961055 REFA JAZILATUL HASANAH P BANGKALAN 1996-10-27
769 9963961056 AHMAD ZAHID YUSUF P BANGKALAN 1996-11-15
770 9963961057 HOIRUDDIN L BANGKALAN 1996-12-03
771 9963961058 SALIMAH P BANGKALAN 1996-12-05
772 9963961059 ERNAWATI L BANGKALAN 1996-12-09
773 9963961060 ANIS SULALLAH P BANGKALAN 1996-12-15
774 9963961061 FAHRUDDIN L BANGKALAN 1996-12-16
775 9963961062 SALAM L BANGKALAN 1996-12-22
776 9973049156 ABD MALIK FAJAR L BANGKALAN 1997-01-01
777 9973049157 NURUL HIKMAH P BANGKALAN 1997-01-01
778 9973049158 ABD. MALIK L BANGKALAN 1997-01-01
779 9973049159 HARIROTUL BAIDHOK P BANGKALAN 1997-01-02
780 9973049160 EVALINA P BANGKALAN 1997-02-02
781 9973049161 AKBAR SODIK L SURABAYA 1997-03-06
782 9973049162 FATIMATUS ZAHROH P BANGKALAN 1997-03-08
783 9973049163 DIAN AYU MANTIKA P BANYUWANGI 1997-03-09
784 9973049164 RESWANDIANTO L BANGKALAN 1997-03-10
785 9978370281 YULIA P BANGKALAN 1997-03-27
786 9973049165 MILAWATI P BANGKALAN 1997-04-10
787 9973049166 ALI WAFA L BANGKALAN 1997-04-10
788 9973049167 MOH. AMIN L BANGKALAN 1997-04-11
789 9973049168 UMAR FARUQ L BANGKALAN 1997-04-19
790 9973049169 FIFIN KURNIAWATI P BALIKPAPAN 1997-04-20
791 9978310269 MANNAWATUN TOYYIBAH P PONTIANAK 1997-05-14
792 9978370284 MUZAYYANA P BANGKALAN 1997-05-18
793 9973049170 SULAIHA P BANGKALAN 1997-05-28
794 9973049171 WASILAH P BANGKALAN 1997-07-07
795 9973049172 ISMAIL L BANGKALAN 1997-07-07
796 9973049173 YULYANTO NUR ROHMAN L PALANGKARAYA 1997-07-13
797 9978310273 LIAWATI P PALANGKARAYA 1997-08-06
798 9973049174 RIZKIYAH P BANGKALAN 1997-08-15
799 9973049175 FATIMATUS ZAHROH P BANGKALAN 1997-08-17
800 9973049176 RISQI MUBAROK L BANGKALAN 1997-08-27
801 9973049177 ABDUL HAKIM L BANGKALAN 1997-08-29
802 9973049178 QOMARUDDIN L BANGKALAN 1997-09-15
803 9973049179 NUR JANNAH P BANGKALAN 1997-09-18
804 9968574152 ZAINUL ARIFIN L BANGKALAN 1997-09-26
805 9973049180 ROBIATUL ADEWIYAH P BANGKALAN 1997-10-01
100871548.xls.ms_office
26
SEPULU 9 20531191
SAPLASAH 9 20531191
SEPULU 9 20531191
TANAGURAH BARAT 9 20531191
GUNELAP 9 20531191
GUNELAP 9 20531191
PRANCAK 9 20531191
LEMBUNG PASESER 9 20531191
LEMBUNG PASESER 9 20531191
BANYUSANGKA 9 20531191
LEMBUNG PASESER 9 20531191
LEMBUNG PASESER 9 20531191
SEPULU 9 20531191
TANAGURAH BARAT 9 20531191
BANYONENG LAOK 9 20531191
GANGSEYAN 9 20531191
PRANCAK 9 20531191
GANGSEYAN 9 20531191
BANYONENG LAOK 9 20531191
KALABETAN 9 20531191
MANERON 9 20531191
SEPULU 9 20531191
TANAGURAH BARAT 9 20531191
SAPLASAH 9 20531191
MANERON 9 20531191
TANAGURAH BARAT 9 20531191
LEMBUNG PASESER 9 20531191
LEMBUNG PASESER 9 20531191
SAPLASAH 9 20531191
LEMBUNG PASESER 9 20531191
LEMBUNG PASESER 9 20531191
GUNELAP 9 20531191
SEPULU 9 20531191
BANYUSANGKAH/Tj.BUMI 9 20531191
BANYIONENG LAOK 9 20531191
SEPULU 9 20531191
LEMBUNG PASESER 9 20531191
TANAGURAH BARAT 9 20531191
LEMBUNG PASESER 9 20531191
PRANCAK 9 20531191
PRANCAK 9 20531191
SEPULU 9 20531191
MANERON 9 20531191
LARANGAN GLINTONG 9 20531191
MANERON 9 20531191
LEMBUNG PASESER 9 20531191
KALABETAN 9 20531191
KALABETAN 9 20531191
SEPULU 9 20531191
MANERON 9 20531191
LEMBUNG PASESER 9 20531191
BANGSEREH 9 20531191
PRANCAK 9 20531191
KALABETAN 9 20531191
LEMBUNG PASESER 9 20531191
TANAGURAH BARAT 9 20531191
LEMBUNG PASESER 9 20531191
LEMBUNG PASESER 9 20531191
MANERON 9 20531191
LEMBUNG PASESER 9 20531191
SEPULU 9 20531191
KALABETAN 9 20531191
100871548.xls.ms_office
27
806 9973049181 JUMRIYAH P BANGKALAN 1997-10-15
807 9973049182 ARINI HIDAYATI P SAMBAS 1997-11-01
808 9973049183 NUR LAILA P BANGKALAN 1997-11-11
809 9973049184 LISA NURJANNAH P BANGKALAN 1997-12-06
810 9973049185 MUHAMMAD YUSUF L BANGKALAN 1997-12-25
811 9982601374 SUHAR L BANGKALAN 1998-02-09
812 9982601375 MEGA FEBRIANA P BANGKALAN 1998-02-25
813 9988153756 NURUL BAITI DEWI P BANGKALAN 1998-06-28
814 9982601376 NUR HALISA P BANGKALAN 1998-08-24
815 9982601377 HUSNUL HOTIMAH P BANGKALAN 1998-09-01
816 9964786523 HUSNI MUBAROK L Bangkalan 1996-03-16
817 9968995833 Moh. Zainul. A L BANGKALAN 1996-03-06
818 9968071201 Abd. Mu'is L BANGKALAN 1996-05-16
100871548.xls.ms_office
28
TANAGURAH BARAT 9 20531191
KALABETAN 9 20531191
SEPULU 9 20531191
BANYUSANGKA 9 20531191
LEMBUNG PASESER 9 20531191
LEMBUNG PASESER 9 20531191
SAPLASAH 9 20531191
KALABETAN 9 20531191
KALABETAN 9 20531191
LARANGAN GLINTONG 9 20531191
Sepulu 9 20531191
KLAMPIS BARAT 9 20531191
DS.BRAGANG KEC.KLAMPIS 9 20531191
100871548.xls.ms_office

You're Reading a Free Preview

Mengunduh
scribd
/*********** DO NOT ALTER ANYTHING BELOW THIS LINE ! ************/ var s_code=s.t();if(s_code)document.write(s_code)//-->